Wetbulb
76.68 77.20 77.60 77.59 78.19 78.47 78.25 78.55 78.15 77.53 77.52 76.83 75.24 75.21 74.77 74.47 74.31 73.48 72.93 71.28 69.12 68.33 67.63 65.95 64.79 64.85 61.36 60.69 60.39 60.02 59.06 59.69 59.48 63.53 62.90 64.28 64.91 64.05 65.42 65.75 65.23 67.10 66.83
77.31 77.56 77.77 77.88 78.19 77.80 78.06 78.21 78.26 77.39 77.10 76.00 75.39 75.06 74.56 74.07 73.79 72.90 70.85 70.25 68.79 67.04 64.91 63.78 62.66 61.07 61.88 62.03 59.90 60.43 59.50 59.95 57.95 57.67 59.13 58.46 60.18 61.46 61.70 63.19 63.56 64.27 65.57
77.39 77.04 77.10 77.59 77.59 77.54 77.94 78.19 77.70 77.42 76.50 75.69 75.25 74.58 74.03 73.56 73.10 72.47 71.40 70.01 68.50 65.97 63.95 63.24 61.57 62.20 60.97 60.50 61.01 60.46 60.54 60.33 59.91 57.88 57.20 59.08 59.10 60.20 60.18 61.07 60.94 61.89 62.68
76.72 76.71 76.91 77.50 77.82 77.73 78.26 77.97 77.24 76.97 75.78 75.42 74.77 74.48 73.92 73.34 72.49 71.80 70.75 69.31 67.02 64.48 63.54 63.19 62.22 62.30 62.08 62.39 61.62 62.73 61.62 60.62 60.58 58.32 57.50 57.21 58.04 59.68 59.49 57.73 57.46 58.94 58.41
76.83 77.02 77.44 78.26 78.67 78.53 78.62 77.28 77.06 76.03 75.55 75.36 74.42 74.14 73.40 72.54 71.68 71.43 70.31 68.66 66.09 63.67 63.65 63.30 62.90 62.12 58.28 60.21 61.14 62.46 62.28 60.47 58.89 57.32 56.43 56.37 56.58 56.85 56.79 57.68 56.99 58.12 60.00
77.17 76.83 78.19 78.99 79.32 79.00 76.93 76.36 75.91 75.06 74.71 74.17 73.02 72.80 72.24 71.03 65.22 66.55 69.10 67.45 65.69 64.04 63.41 63.60 64.00 59.47 60.01 58.44 58.05 56.61 58.53 60.95 59.74 58.02 55.95 55.60 56.84 57.29 57.70 57.63 57.63 56.40 55.27
77.85 77.74 78.23 78.38 77.67 77.20 76.37 75.34 75.45 74.73 72.74 71.45 71.89 71.83 71.65 69.71 63.22 63.81 64.79 65.63 63.50 63.66 64.55 65.00 62.99 62.65 62.03 63.47 60.95 59.43 59.19 56.83 56.47 58.51 57.50 57.57 57.55 58.69 59.07 58.60 58.86 57.94 57.06
77.69 77.95 77.34 76.90 75.75 74.88 75.68 74.85 74.42 71.93 70.74 70.13 70.73 70.84 69.34 66.61 62.03 61.54 62.86 64.68 64.02 64.01 64.37 63.68 61.42 60.58 60.66 59.67 60.70 61.99 62.23 62.21 61.82 60.63 59.45 59.39 60.04 60.25 59.95 59.81 59.62 59.57 59.65
77.20 75.53 75.28 72.78 64.68 60.40 61.29 60.12 71.65 71.34 69.68 68.93 69.22 67.67 67.35 64.07 60.60 60.46 61.82 63.31 62.67 62.04 62.62 60.97 60.38 59.97 57.22 57.29 60.48 60.34 61.11 61.06 59.23 58.07 57.30 56.99 56.85 57.44 56.85 57.36 56.36 54.87 54.16
73.11 71.07 65.14 63.68 64.64 62.64 62.78 61.55 70.58 71.23 68.33 65.88 64.68 66.12 62.77 62.86 58.83 57.90 60.27 60.59 60.42 59.63 60.53 61.36 56.57 56.47 56.40 57.01 60.81 60.75 59.35 60.15 60.62 60.79 60.69 60.21 59.33 60.55 58.03 59.34 58.16 55.70 54.61
64.82 64.58 66.63 65.49 66.13 65.15 65.58 67.63 69.06 66.87 65.42 65.18 60.74 61.00 62.91 61.40 57.75 55.96 56.13 62.09 60.11 59.38 59.89 59.47 59.98 55.12 54.37 54.29 54.45 59.00 59.18 58.96 58.41 58.96 59.45 59.56 60.01 60.07 59.99 57.51 60.98 59.18 57.12
67.60 69.30 68.74 68.06 66.97 65.93 68.98 66.80 66.40 65.15 64.00 62.40 60.55 59.06 59.42 59.08 56.56 55.21 54.66 55.33 56.90 60.84 60.23 61.11 61.25 53.63 52.03 51.99 53.38 55.52 54.40 54.54 57.70 58.44 58.06 57.88 58.02 58.16 59.11 60.59 61.40 60.73 60.05
71.27 66.33 69.37 67.20 67.82 67.93 67.17 65.58 64.20 63.79 64.91 63.60 59.98 59.69 57.97 60.14 58.12 55.36 54.51 54.82 54.22 58.38 61.29 57.61 54.89 53.14 52.34 53.97 53.95 54.58 53.73 58.31 58.93 57.33 56.49 57.10 58.17 58.98 60.52 59.93 60.42 62.33 60.93
71.09 70.13 68.35 67.98 68.21 68.21 67.53 67.14 65.44 64.91 64.77 64.69 61.63 59.62 61.81 59.78 61.46 58.74 60.50 59.71 55.70 58.03 59.52 60.32 59.19 54.83 52.31 55.02 55.75 59.13 60.56 60.03 58.49 57.31 57.62 58.27 58.39 57.87 57.60 57.06 55.61 54.91 53.88
69.49 68.44 68.52 67.80 67.53 67.98 68.15 68.60 68.54 68.37 66.76 65.32 62.93 63.12 62.02 61.40 62.66 60.07 60.51 63.54 62.64 58.46 59.64 61.12 59.41 59.52 59.57 59.83 59.94 60.19 59.60 58.53 57.48 58.12 57.07 56.07 56.28 56.00 56.07 56.52 54.17 52.46 51.06
69.38 67.82 67.11 66.61 66.36 66.32 65.52 62.70 49.36 53.85 51.81 53.29 53.78 59.33 60.21 54.21 51.36 51.66 51.34 49.42 47.88 47.55 56.75 57.74 58.27 58.99 59.04 59.13 58.63 57.63 57.03 57.18 58.08 57.64 56.96 56.00 56.27 54.98 52.09 51.49 50.88 50.35 49.28
69.75 66.33 66.51 64.97 65.92 67.20 67.24 65.06 62.80 54.24 46.92 47.44 49.41 51.48 51.76 52.44 47.34 46.84 46.38 45.99 45.50 46.56 56.29 57.99 58.59 59.11 59.30 58.88 57.34 55.85 55.32 57.52 58.92 57.56 56.13 56.23 54.60 53.79 52.46 52.90 51.68 50.79 49.53
69.43 60.23 67.36 67.23 66.76 66.11 65.41 66.63 66.83 63.18 60.02 58.73 48.65 50.88 45.26 44.03 44.25 44.19 43.32 44.76 55.59 52.31 58.15 59.06 59.19 59.44 58.70 57.10 55.96 55.69 56.11 57.11 56.90 55.88 55.61 55.27 55.15 53.67 52.95 52.40 51.10 49.58 48.55
67.85 67.38 68.71 68.03 67.11 65.48 67.90 68.54 66.77 63.64 60.56 57.36 53.34 50.77 47.23 44.23 44.28 43.72 42.87 57.07 58.50 59.49 60.17 59.98 59.63 58.60 56.92 56.09 55.89 56.43 57.23 56.87 56.19 54.71 55.42 55.68 54.42 53.39 52.46 51.38 49.33 47.05 46.90
66.64 64.24 65.86 67.74 66.11 66.66 68.56 67.38 65.20 62.69 58.50 55.95 56.29 55.86 57.61 55.51 57.25 58.82 59.34 60.39 60.52 60.78 60.80 59.48 58.08 57.10 56.33 56.14 56.92 57.22 56.45 55.86 54.51 53.93 55.06 54.77 53.97 53.48 52.40 50.26 47.34 49.56 49.16
67.27 66.44 64.97 66.88 65.58 67.48 67.56 66.39 64.40 61.94 58.90 55.33 56.00 58.35 54.07 58.95 59.18 59.98 60.61 61.36 61.52 62.37 60.78 58.29 56.45 56.15 55.92 56.34 56.86 56.93 56.22 55.18 53.48 53.21 54.22 55.01 54.05 52.95 53.08 47.42 50.30 50.42 48.99
64.63 63.69 64.05 65.11 66.42 68.68 67.21 65.75 63.91 59.34 54.43 57.59 58.00 58.58 48.50 59.18 59.70 60.21 61.87 62.50 62.43 62.75 60.14 57.88 56.33 55.90 56.70 56.83 57.42 56.54 53.77 52.14 52.76 53.07 55.16 54.64 53.66 53.59 51.15 48.63 51.50 51.94 50.70
63.89 62.72 63.09 65.47 68.60 62.90 65.30 64.74 60.07 56.34 58.02 59.27 59.83 59.48 58.31 58.76 59.91 61.34 62.13 62.11 63.17 61.62 59.00 57.72 57.16 56.56 57.21 58.19 56.86 54.83 53.29 50.75 52.60 53.13 54.53 53.93 53.69 52.35 50.90 51.22 52.21 52.17 51.10
63.48 63.41 63.46 64.93 64.03 64.39 62.90 59.49 58.45 56.19 58.14 59.18 59.78 59.30 59.48 60.55 61.51 62.02 61.69 62.26 62.12 60.20 59.07 58.35 57.70 56.90 57.67 57.25 55.30 54.02 51.00 50.54 53.26 54.24 54.13 53.39 53.16 50.75 52.84 53.21 53.53 53.31 52.06
63.58 62.64 60.89 60.48 60.10 61.29 60.07 58.89 58.84 58.98 59.32 59.40 59.00 59.78 60.77 61.66 61.94 61.21 61.32 61.48 60.29 58.91 58.23 57.88 57.44 57.93 57.82 55.08 52.90 51.87 43.94 37.50 45.54 39.74 52.19 53.85 52.97 53.04 53.25 53.73 54.42 54.27 53.62
62.16 62.28 61.58 59.06 58.44 58.80 57.73 58.24 58.01 58.30 58.87 58.93 59.91 60.81 61.34 61.77 61.31 61.05 61.26 60.70 59.40 58.25 57.24 57.55 57.97 58.14 56.10 55.19 51.48 40.19 33.05 34.08 42.75 33.78 46.01 51.52 52.73 53.23 54.37 54.89 54.77 54.28 54.40
MSLP
1007.37 1008.09 1008.82 1009.36 1009.90 1010.44 1010.86 1011.48 1012.04 1012.58 1013.22 1013.73 1014.13 1014.43 1014.91 1015.33 1015.68 1015.87 1016.03 1016.40 1016.53 1016.79 1016.95 1017.22 1017.42 1017.33 1016.92 1016.71 1016.59 1016.43 1016.29 1016.19 1015.33 1015.33 1016.12 1016.51 1016.59 1016.47 1016.06 1015.87 1015.47 1015.30 1015.60
1006.92 1007.64 1008.32 1008.80 1009.30 1009.66 1010.32 1011.07 1011.73 1012.30 1012.94 1013.61 1014.09 1014.52 1014.87 1015.19 1015.51 1015.90 1016.17 1016.43 1016.64 1016.80 1017.14 1017.54 1017.65 1017.61 1017.42 1017.39 1017.08 1017.46 1017.44 1017.29 1016.63 1016.57 1016.89 1016.47 1016.71 1016.75 1016.69 1016.35 1015.82 1015.20 1015.35
1006.50 1007.12 1007.70 1008.33 1008.82 1009.17 1010.04 1010.81 1011.60 1012.10 1012.73 1013.37 1013.87 1014.30 1014.79 1015.24 1015.70 1016.04 1016.34 1016.55 1016.78 1017.06 1017.28 1017.35 1017.86 1018.08 1017.99 1017.85 1017.71 1017.34 1017.22 1017.41 1017.25 1016.92 1016.67 1016.70 1016.91 1016.67 1016.43 1015.97 1015.94 1015.78 1014.94
1005.91 1006.64 1007.22 1007.92 1008.52 1009.23 1010.03 1010.71 1011.36 1011.77 1012.18 1012.95 1013.80 1014.56 1015.06 1015.30 1015.78 1016.20 1016.63 1016.82 1017.09 1017.31 1017.50 1017.75 1017.95 1018.10 1018.44 1018.27 1018.22 1018.12 1018.00 1017.55 1017.49 1016.97 1016.70 1016.61 1016.50 1016.68 1016.44 1015.98 1015.69 1015.44 1015.32
1005.76 1006.46 1007.13 1007.84 1008.48 1009.05 1009.83 1010.69 1011.34 1012.00 1012.51 1013.16 1013.91 1014.48 1014.96 1015.36 1015.47 1015.92 1016.33 1016.70 1017.25 1017.41 1017.66 1017.90 1018.04 1018.33 1018.68 1018.64 1018.36 1018.37 1018.35 1017.83 1017.58 1017.34 1016.89 1016.75 1016.78 1017.02 1016.68 1016.43 1015.81 1015.44 1014.87
1005.42 1006.06 1006.74 1007.22 1007.70 1008.31 1009.43 1010.12 1010.68 1011.29 1011.92 1013.05 1014.16 1014.80 1015.10 1014.81 1015.77 1016.44 1016.82 1017.18 1017.28 1017.39 1017.52 1017.85 1017.91 1018.46 1018.79 1019.10 1019.17 1018.98 1018.87 1018.56 1018.28 1017.99 1017.32 1017.52 1017.37 1017.27 1016.72 1016.72 1015.98 1015.81 1014.95
1005.31 1005.88 1006.54 1006.99 1007.63 1008.46 1009.57 1010.34 1010.69 1011.19 1011.91 1012.62 1012.80 1014.66 1015.37 1015.75 1016.48 1016.72 1016.77 1016.81 1017.36 1017.31 1017.40 1017.65 1017.59 1017.34 1018.23 1018.24 1018.57 1018.95 1019.02 1018.88 1018.68 1018.45 1017.99 1017.57 1017.56 1017.35 1017.32 1016.95 1016.26 1016.31 1015.64
1005.09 1006.04 1007.32 1008.54 1009.61 1010.73 1011.32 1012.27 1010.01 1011.16 1011.80 1012.57 1012.13 1014.16 1015.92 1016.13 1016.94 1016.99 1017.18 1017.03 1017.23 1017.32 1017.42 1017.70 1017.90 1018.05 1018.28 1018.61 1018.19 1017.99 1017.93 1017.85 1017.95 1017.80 1017.44 1017.31 1017.14 1017.01 1017.07 1016.74 1016.68 1016.53 1015.73
1005.11 1006.55 1007.67 1008.72 1009.99 1010.28 1010.71 1011.63 1010.44 1010.75 1011.84 1012.16 1012.34 1013.85 1015.70 1016.42 1017.12 1017.27 1017.50 1017.35 1017.37 1017.48 1017.50 1017.73 1018.00 1018.20 1018.74 1018.77 1018.38 1017.93 1017.64 1017.34 1017.30 1017.46 1017.52 1017.47 1017.35 1017.19 1017.32 1016.89 1015.81 1015.39 1014.99
1006.07 1006.71 1007.67 1008.31 1008.81 1008.48 1007.14 1009.07 1010.06 1011.14 1011.63 1012.47 1013.43 1014.32 1015.09 1016.21 1017.19 1017.35 1017.37 1017.09 1017.08 1017.00 1017.37 1017.64 1018.01 1018.31 1018.56 1018.75 1018.22 1017.70 1017.39 1016.91 1016.79 1016.65 1016.68 1016.13 1016.09 1015.90 1016.25 1016.38 1015.80 1014.89 1014.46
1006.96 1007.48 1007.99 1008.06 1007.37 1007.80 1008.15 1009.83 1010.56 1012.19 1012.29 1012.97 1013.62 1014.27 1014.83 1015.83 1016.47 1016.50 1017.28 1016.96 1016.38 1016.69 1016.49 1016.63 1017.09 1018.05 1018.26 1018.46 1018.42 1017.81 1017.33 1017.26 1016.94 1016.43 1015.62 1014.85 1014.34 1013.97 1014.13 1015.28 1015.03 1015.02 1014.46
1006.94 1007.41 1008.01 1008.12 1008.23 1008.21 1008.44 1008.29 1010.37 1011.98 1012.50 1013.47 1013.67 1014.34 1015.34 1015.80 1016.46 1016.50 1016.70 1016.81 1017.03 1016.71 1016.65 1016.66 1017.18 1017.89 1018.09 1018.11 1017.96 1017.31 1017.31 1017.18 1016.26 1015.32 1014.65 1014.16 1013.75 1013.68 1013.77 1014.09 1014.73 1015.00 1014.82
1007.02 1007.78 1007.86 1007.68 1008.16 1008.23 1009.29 1009.83 1010.33 1011.47 1012.47 1013.28 1013.72 1014.16 1015.31 1015.65 1016.68 1016.91 1016.97 1016.96 1017.25 1017.14 1016.66 1016.94 1017.45 1017.55 1017.59 1017.41 1016.83 1017.08 1016.81 1016.12 1015.10 1014.57 1014.18 1013.91 1013.79 1013.87 1014.44 1014.35 1014.11 1014.05 1014.40
1006.66 1007.10 1008.00 1008.31 1008.37 1009.05 1009.50 1009.41 1010.23 1011.29 1011.62 1012.22 1013.22 1014.01 1014.34 1015.62 1016.09 1016.52 1016.47 1016.97 1017.14 1017.10 1016.69 1016.50 1016.55 1016.95 1016.87 1016.62 1016.38 1015.65 1015.46 1015.28 1015.09 1014.91 1014.34 1014.09 1013.99 1013.86 1013.62 1014.04 1014.18 1014.36 1014.58
1006.73 1006.83 1007.52 1007.91 1008.76 1009.22 1009.42 1009.50 1010.26 1010.77 1010.84 1011.69 1012.44 1012.83 1013.78 1014.61 1014.98 1015.22 1015.31 1015.59 1015.65 1016.00 1016.14 1015.89 1015.81 1015.27 1015.13 1014.58 1014.59 1014.60 1014.56 1014.44 1014.47 1014.22 1014.20 1014.25 1014.20 1014.44 1014.49 1014.63 1014.91 1014.87 1014.45
1006.15 1006.28 1007.56 1008.36 1008.77 1009.13 1009.49 1010.00 1010.89 1011.07 1011.39 1012.11 1012.43 1012.68 1014.26 1014.49 1014.81 1015.51 1015.72 1016.03 1016.35 1016.25 1016.09 1015.48 1015.16 1014.65 1014.38 1014.32 1014.27 1014.15 1014.08 1014.10 1014.03 1014.40 1014.30 1014.40 1014.46 1014.71 1015.13 1015.35 1015.18 1014.73 1014.33
1006.04 1006.67 1007.49 1008.04 1008.57 1008.97 1009.07 1009.69 1010.95 1012.55 1012.50 1012.79 1013.11 1013.49 1013.88 1014.44 1015.16 1015.42 1015.87 1016.34 1016.33 1016.20 1015.86 1015.15 1014.63 1014.46 1014.07 1014.15 1013.98 1013.94 1013.80 1013.86 1014.82 1014.41 1014.58 1014.70 1015.00 1014.84 1014.89 1014.25 1014.28 1014.22 1014.33
1006.11 1006.70 1007.35 1007.61 1008.19 1008.61 1008.93 1009.08 1009.48 1010.87 1011.69 1012.87 1013.79 1013.86 1014.32 1014.75 1015.05 1015.48 1016.23 1016.11 1016.19 1016.14 1014.81 1014.27 1013.98 1013.81 1013.95 1013.97 1014.06 1013.97 1013.93 1013.99 1014.11 1014.62 1014.82 1014.89 1014.47 1014.55 1014.25 1014.10 1014.16 1014.32 1014.59
1006.16 1006.68 1006.87 1007.55 1008.03 1008.32 1008.31 1008.22 1008.77 1009.89 1011.18 1012.17 1013.62 1014.16 1014.58 1014.84 1015.43 1015.98 1016.11 1015.32 1014.53 1014.08 1013.61 1013.57 1013.52 1013.54 1013.73 1014.03 1014.15 1014.26 1014.31 1014.21 1014.48 1015.08 1014.90 1014.41 1014.57 1014.53 1014.32 1014.33 1014.42 1014.51 1014.88
1006.49 1006.75 1006.80 1007.38 1007.77 1007.92 1007.49 1007.82 1008.35 1009.60 1010.79 1011.72 1012.13 1012.72 1013.40 1014.36 1014.59 1014.76 1014.57 1014.11 1014.17 1013.36 1013.36 1013.73 1013.51 1013.86 1014.02 1014.25 1014.39 1014.37 1014.35 1014.54 1015.07 1015.08 1014.65 1014.55 1014.58 1014.33 1014.08 1014.35 1014.80 1014.33 1014.29
1006.32 1006.81 1006.87 1007.18 1007.16 1007.09 1007.04 1007.37 1008.15 1009.10 1009.99 1011.24 1011.53 1011.65 1012.45 1012.78 1012.92 1012.89 1012.77 1013.07 1012.99 1013.12 1013.39 1013.84 1013.90 1013.87 1013.92 1013.96 1014.21 1014.27 1014.50 1014.99 1015.25 1015.04 1014.78 1014.15 1014.16 1013.92 1014.17 1014.92 1014.30 1014.07 1014.06
1006.17 1006.74 1006.98 1006.98 1006.84 1006.35 1006.65 1007.50 1008.16 1009.36 1010.55 1010.83 1010.82 1011.86 1012.64 1012.68 1012.24 1012.14 1012.39 1012.74 1012.98 1013.44 1013.58 1014.03 1013.97 1013.91 1013.84 1014.19 1014.24 1014.43 1015.24 1015.60 1015.26 1014.93 1014.22 1013.96 1014.02 1013.72 1014.14 1014.53 1013.72 1013.32 1013.38
1006.10 1006.46 1006.84 1006.85 1006.13 1006.18 1006.85 1007.43 1008.59 1009.49 1009.79 1009.87 1010.15 1011.13 1012.01 1011.81 1011.45 1011.89 1012.40 1012.67 1013.15 1013.44 1013.67 1013.99 1014.07 1014.04 1014.04 1014.22 1014.59 1015.21 1015.62 1015.77 1015.32 1014.91 1014.18 1013.89 1013.69 1013.71 1014.06 1013.55 1013.00 1012.60 1012.67
1006.09 1006.51 1006.83 1006.65 1006.68 1006.96 1007.55 1008.41 1009.00 1009.07 1009.25 1009.47 1009.81 1010.26 1010.72 1010.90 1011.34 1012.04 1012.44 1012.83 1013.17 1013.52 1013.86 1013.94 1014.00 1014.19 1014.34 1014.71 1015.17 1015.44 1015.84 1015.77 1015.20 1014.48 1014.20 1014.01 1013.79 1013.88 1013.42 1012.80 1012.30 1011.92 1012.11
1006.20 1006.59 1007.01 1007.40 1007.82 1008.08 1008.54 1008.88 1009.29 1009.70 1009.77 1009.39 1009.67 1009.94 1010.30 1010.93 1011.51 1012.25 1012.55 1012.92 1013.23 1013.60 1013.88 1013.99 1013.90 1014.18 1014.47 1015.17 1015.44 1015.55 1015.89 1016.07 1015.88 1015.56 1014.62 1013.99 1013.88 1013.65 1013.09 1012.37 1011.51 1011.15 1011.01
1006.34 1006.74 1007.14 1007.71 1008.42 1008.92 1008.98 1009.29 1009.62 1009.80 1009.60 1009.32 1009.52 1009.95 1010.48 1010.96 1011.63 1012.11 1012.52 1012.88 1013.30 1013.68 1013.94 1013.86 1014.10 1014.48 1014.95 1014.98 1015.29 1015.92 1015.99 1016.03 1015.74 1015.93 1015.41 1014.37 1013.71 1013.09 1012.38 1011.76 1011.14 1010.61 1009.83
Wind_Speed
14 13 12 12 13 12 12 12 11 12 11 10 9 9 9 8 7 4 4 5 4 4 4 5 5 5 5 5 4 5 6 7 6 6 5 6 5 8 7 6 5 5 7
13 13 13 13 13 13 13 14 14 13 13 11 11 10 9 8 8 6 5 6 5 4 5 4 3 4 3 3 5 6 6 6 6 3 4 5 4 6 7 8 7 5 4
14 14 14 13 13 14 14 14 14 14 13 12 12 11 10 8 7 6 5 5 5 5 5 4 4 3 3 5 5 3 3 4 4 4 4 3 6 5 7 4 6 6 6
15 15 14 14 12 12 13 13 14 15 15 13 11 10 9 8 7 6 5 5 5 5 4 5 5 4 3 3 3 0 5 5 3 4 5 5 4 5 4 6 7 6 6
13 13 12 11 11 12 12 14 13 14 12 12 11 10 10 8 7 8 6 6 5 5 5 5 5 4 4 4 6 3 4 5 6 6 6 6 7 8 6 6 7 6 7
13 14 14 14 15 15 14 15 14 13 12 10 9 9 9 7 12 6 3 5 6 5 5 4 5 6 7 5 4 4 5 5 5 6 6 7 6 7 6 8 6 7 7
12 13 14 15 16 15 16 15 14 14 13 11 13 9 7 6 9 9 4 6 6 4 2 2 5 4 2 7 10 7 8 6 6 6 6 6 7 7 7 8 8 8 8
13 12 11 10 9 7 7 4 16 14 14 13 14 9 6 7 9 9 5 5 4 4 1 0 2 4 4 7 8 7 7 6 8 8 7 8 8 8 8 8 9 9 10
14 12 12 13 14 10 3 8 17 16 13 11 12 13 9 9 8 9 7 5 5 4 3 2 4 5 6 3 7 5 5 6 6 11 12 11 13 13 11 9 10 7 8
12 15 16 12 11 3 10 13 12 12 12 11 11 11 12 11 9 10 6 4 6 4 4 3 6 3 0 5 7 5 7 7 8 11 10 12 16 14 18 11 10 11 10
15 14 11 10 11 3 7 10 9 8 10 12 10 9 9 11 11 14 9 5 3 5 3 3 4 7 4 5 6 8 9 9 12 12 12 10 9 9 4 8 8 8 10
17 13 8 8 4 9 13 15 15 11 11 10 9 8 5 4 6 9 12 5 2 4 4 2 1 5 4 7 8 7 6 9 10 10 9 9 8 7 7 6 7 8 9
15 4 8 7 6 8 11 11 11 11 10 9 8 9 6 7 3 7 8 6 5 5 5 5 6 7 9 11 14 8 8 9 9 9 9 9 8 7 6 9 9 9 9
10 7 6 7 8 11 8 10 12 10 10 11 9 9 8 7 7 7 8 8 9 7 9 8 4 6 11 11 9 10 7 7 8 9 8 8 7 7 8 9 7 7 9
6 6 5 6 9 9 9 10 11 12 10 9 10 8 9 8 9 5 1 7 7 3 3 5 7 7 8 7 7 7 7 8 7 7 7 8 8 6 7 8 8 8 9
7 5 7 8 8 8 9 8 17 9 12 9 6 6 4 6 11 9 6 7 8 6 4 6 8 8 8 8 8 8 7 6 5 7 8 6 7 8 6 6 6 6 6
7 8 8 9 10 11 10 10 10 6 12 9 8 8 1 11 9 10 8 7 7 5 6 8 7 7 7 8 8 8 7 6 5 7 7 7 6 6 7 4 4 5 6
8 9 9 9 9 8 9 9 10 10 10 8 4 5 8 10 10 9 8 6 5 6 7 7 6 6 7 8 8 8 7 6 6 5 6 6 5 5 6 6 5 6 6
8 10 9 9 9 9 9 10 10 11 10 10 7 5 6 8 7 6 6 7 6 6 4 5 6 6 7 7 7 7 7 7 6 5 7 5 5 5 5 5 6 4 4
8 8 10 9 8 7 10 10 10 10 11 10 9 10 11 8 8 9 8 6 6 4 4 6 5 5 6 6 6 6 6 7 5 6 6 5 6 5 6 5 4 7 6
7 7 8 8 10 11 10 10 10 11 10 6 8 9 11 9 9 6 4 6 5 2 4 5 5 5 5 5 6 7 6 5 5 5 7 5 5 6 3 5 6 7 6
7 6 7 8 10 11 11 11 11 11 9 10 9 8 7 8 6 5 3 3 2 2 3 3 4 5 5 5 6 5 6 5 5 5 7 5 5 6 3 6 8 7 7
7 7 7 7 12 9 9 10 12 11 12 12 9 11 10 9 6 3 3 3 2 2 3 3 4 5 6 7 6 3 3 4 5 6 7 6 6 4 6 7 9 8 8
7 7 8 7 4 11 10 10 9 11 8 10 9 8 9 6 4 4 3 3 2 2 2 3 4 5 7 6 5 2 2 4 6 7 6 6 7 4 8 8 9 10 10
7 8 7 6 7 6 9 12 11 10 8 9 9 8 6 6 4 5 4 3 2 1 1 3 4 8 9 6 4 5 4 5 9 9 7 7 8 10 9 9 10 11 12
5 8 8 8 7 7 8 7 6 6 8 9 8 6 6 5 5 5 4 4 2 2 3 4 6 9 7 3 5 6 4 4 6 4 8 8 8 8 8 11 15 12 12
Wind_Direction
198 197 202 198 197 194 191 190 179 167 164 164 163 160 163 166 161 158 94 110 87 74 53 59 54 23 19 24 20 15 20 348 322 59 13 47 341 347 355 357 358 6 56
195 194 197 196 195 191 191 184 176 170 164 163 162 165 172 170 162 157 175 127 131 94 74 68 61 62 76 34 70 36 40 36 351 350 40 343 7 343 340 319 335 344 357
193 193 194 193 195 195 187 177 175 165 164 166 168 168 170 166 165 159 154 148 115 97 111 119 96 78 45 62 28 35 60 37 11 355 330 3 330 10 325 313 318 320 295
197 196 195 192 192 191 182 178 175 168 166 165 169 164 167 161 166 163 160 148 127 123 121 117 132 114 122 96 67 67 57 329 22 337 335 337 343 9 333 346 323 328 323
195 192 190 183 179 179 170 176 171 171 168 163 161 161 161 166 178 169 172 160 152 142 132 156 163 83 35 351 314 33 328 342 346 342 346 342 1 344 350 332 328 331 296
184 185 176 175 175 174 165 173 168 166 151 148 158 163 177 195 98 103 143 159 159 161 164 191 164 179 208 226 272 318 348 331 335 334 343 356 353 317 347 346 324 345 334
178 181 177 180 175 169 170 170 167 157 144 159 142 169 185 118 134 138 168 159 182 172 189 265 268 88 265 272 194 219 245 244 265 307 300 316 309 319 315 306 340 321 319
172 167 162 157 148 138 167 227 166 149 153 175 135 141 168 121 145 152 182 153 174 163 132 57 337 341 356 323 290 268 264 257 225 234 287 289 280 300 288 281 294 284 273
159 137 130 119 90 100 209 286 253 159 155 140 131 139 155 135 151 152 206 170 142 174 170 219 334 316 74 301 279 280 282 279 200 211 237 256 257 263 264 288 276 265 275
123 123 117 130 145 182 41 293 193 158 139 137 134 146 137 141 146 163 215 173 177 203 197 218 182 287 189 253 283 297 291 295 302 309 285 258 236 231 217 228 267 277 283
124 136 146 184 206 80 90 116 155 156 133 138 132 133 143 158 172 171 202 211 194 207 243 205 130 169 211 250 269 285 294 323 294 285 282 283 285 280 220 192 242 274 289
155 163 203 244 208 160 159 148 149 148 139 143 137 140 165 143 177 176 176 216 114 260 277 272 131 151 235 247 252 269 308 293 282 282 289 293 299 307 305 359 345 295 301
161 198 269 161 165 145 155 141 137 145 147 155 161 165 165 170 184 163 181 172 201 241 278 19 320 294 274 266 243 269 268 272 279 299 299 303 314 327 323 262 256 259 252
184 202 185 161 132 152 159 148 151 156 170 170 162 175 176 170 192 188 200 200 223 225 231 236 246 287 274 269 276 249 245 286 315 310 302 309 307 297 306 2 343 333 311
194 153 143 155 160 156 160 156 167 175 179 170 178 181 173 183 197 207 171 207 213 141 305 263 271 278 287 298 307 308 302 305 308 312 318 314 333 339 320 334 328 308 299
209 162 166 166 159 146 145 107 38 72 95 97 107 155 147 76 118 139 131 78 75 74 248 266 280 294 303 311 315 311 309 306 314 330 304 332 326 327 333 304 282 280 294
214 161 166 172 167 169 159 154 147 79 63 66 117 133 120 142 144 141 134 136 122 144 252 270 285 301 310 313 314 314 313 333 340 289 340 332 320 297 243 284 303 318 323
186 159 175 181 169 158 166 172 160 161 159 142 101 130 114 127 124 137 157 162 213 216 240 251 289 306 310 317 318 316 319 319 310 350 325 296 293 288 301 314 319 315 317
165 176 189 173 164 174 183 177 162 164 152 147 137 151 118 108 125 147 174 253 274 283 307 314 319 322 327 321 321 318 316 300 344 326 292 305 316 296 300 306 321 315 309
175 187 182 168 162 185 178 177 164 154 151 163 165 167 165 165 193 207 212 222 247 269 351 322 327 328 320 320 318 314 311 352 346 305 300 304 277 300 299 322 311 300 303
167 174 192 167 172 186 177 178 160 167 152 148 182 172 157 194 211 203 226 182 237 347 10 335 325 319 302 316 320 314 340 331 302 288 274 277 301 290 316 290 283 293 301
162 169 180 178 191 192 175 171 167 149 157 183 177 136 124 228 239 210 203 198 131 72 21 334 318 330 335 326 303 351 315 302 291 291 279 297 289 287 329 287 287 291 294
164 168 181 205 210 148 161 162 154 159 180 177 174 155 183 212 222 202 156 128 113 38 36 328 339 338 348 331 24 348 309 284 292 288 301 297 291 333 291 286 294 301 297
169 174 187 205 120 165 159 147 159 175 162 173 171 170 180 181 192 136 166 141 94 56 353 349 355 346 334 1 340 1 290 285 289 289 294 290 297 307 290 294 293 304 303
180 167 142 144 148 153 154 156 155 171 199 178 172 168 159 169 158 160 149 130 93 13 26 343 4 350 19 356 350 329 356 318 287 341 287 288 293 296 292 293 300 308 312
163 165 136 136 136 158 144 139 142 174 194 175 158 154 163 162 152 152 155 123 134 102 351 13 14 16 14 17 35 1 342 297 283 314 303 293 293 295 300 311 313 307 309